Flag for United Kingdom Weather past 2 weeks in Durham, England, United Kingdom

Now
45 °F

Passing clouds.


Feels Like: 39 °F
Forecast: 37 / 53 °F
Wind: 10 mph from South

Location: Newcastle

Current Time: May 6, 2015 at 4:26:00 AM

Latest Report: May 6, 2015 at 3:50 AM


Visibility: N/A

Pressure: 29.27 "Hg

Humidity: 87%

Dew point: 41 °F

Location of DurhamLocation

Historic Weather in Durham — Graph

°F

Durham temperature yesterday

Maximum temperature yesterday: 55 °F (at 5:20 PM)
Minimum temperature yesterday: 45 °F (at 10:50 PM)
Average temperature yesterday: 49 °F

Past Weeks' High & Low Weather Summary

 TemperatureHumidityPressure
High70 °F (Apr 23, 2:20 PM)100% (Apr 21, 3:20 AM)30.60 "Hg (Apr 21, 3:20 AM)
Low28 °F (Apr 27, 3:20 AM)17% (Apr 27, 1:50 PM)29.03 "Hg (May 5, 11:20 AM)
Average46 °F75%29.78 "Hg
* Reported Apr 21 3:20 AM — May 6 3:20 AM, Durham, Weather by CustomWeather, © 2015

Note: Actual official high and low records may vary slightly from our data, if they occured in-between our weather recording intervals... More about our weather records

Advertising

Durham weather history for previous 24 hours

 ConditionsComfort  
Time TempWeatherWind HumidityBarometerVisibility
3:20 AM
Wed, May 6
45 °FPassing clouds.10 mph87%29.27 "HgN/A
2:50 AM46 °FPassing clouds.10 mph82%29.27 "HgN/A
2:20 AM46 °FPassing clouds.9 mph82%29.27 "HgN/A
1:50 AM46 °FPassing clouds.10 mph82%29.27 "HgN/A
1:20 AM46 °FPassing clouds.12 mph82%29.27 "HgN/A
12:50 AM45 °FPassing clouds.13 mph87%29.27 "HgN/A
12:20 AM46 °FPassing clouds.15 mph82%29.24 "HgN/A
11:50 PM
Tue, May 5
45 °FPassing clouds.12 mph87%29.24 "HgN/A
10:50 PM45 °FPassing clouds.13 mph93%29.21 "HgN/A
10:20 PM46 °FPassing clouds.9 mph93%29.18 "HgN/A
9:50 PM46 °FPassing clouds.7 mph93%29.18 "HgN/A
9:20 PM46 °FPartly sunny.6 mph87%29.18 "HgN/A
8:50 PM46 °FPartly sunny.7 mph87%29.18 "HgN/A
8:20 PM48 °FPassing clouds.14 mph76%29.18 "HgN/A
7:50 PM52 °FSprinkles. Scattered clouds.15 mph62%29.18 "HgN/A
7:20 PM50 °FScattered clouds.12 mph67%29.15 "HgN/A
6:50 PM55 °FPassing clouds.14 mph59%29.15 "HgN/A
6:20 PM55 °FPassing clouds.21 mph55%29.15 "HgN/A
5:50 PM55 °FPassing clouds.20 mph55%29.15 "HgN/A
5:20 PM55 °FPartly sunny.21 mph63%29.15 "HgN/A
4:50 PM54 °FPartly sunny.20 mph67%29.15 "HgN/A
4:20 PM54 °FScattered clouds.20 mph63%29.15 "HgN/A
3:50 PM54 °FPassing clouds.17 mph67%29.12 "HgN/A
3:20 PM52 °FScattered clouds.23 mph72%29.15 "HgN/A
2:50 PM50 °FPassing clouds.21 mph76%29.09 "HgN/A
2:20 PM50 °FScattered clouds.23 mph94%29.09 "HgN/A
1:50 PM52 °FDrizzle. Partly sunny.16 mph94%29.06 "HgN/A
1:20 PM50 °FDrizzle. Low clouds.5 mph100%29.06 "Hg3 mi
12:50 PM50 °FLight rain. Fog.3 mph100%29.03 "Hg1 mi
12:20 PM48 °FDrizzle. Fog.6 mph100%29.03 "Hg1 mi
11:50 AM48 °FLight rain. Fog.9 mph100%29.03 "Hg1 mi
11:20 AM48 °FLight rain. More clouds than sun.12 mph100%29.03 "Hg1 mi
10:50 AM48 °FLight rain. Low clouds.10 mph100%29.06 "Hg2 mi
10:20 AM48 °FLight rain. Low clouds.13 mph100%29.06 "Hg2 mi
9:50 AM46 °FLight rain. Low clouds.14 mph100%29.06 "Hg2 mi
9:20 AM46 °FLight rain. Fog.14 mph100%29.09 "Hg2 mi
8:50 AM46 °FLight rain. Fog.14 mph100%29.12 "Hg2 mi
8:20 AM46 °FLight rain. Fog.14 mph100%29.12 "Hg2 mi
7:50 AM46 °FRain. Fog.15 mph100%29.15 "Hg2 mi
7:20 AM46 °FRain. Fog.14 mph100%29.15 "Hg1 mi
6:50 AM46 °FRain. Fog.13 mph100%29.18 "Hg1 mi
6:20 AM46 °FLight rain. Fog.13 mph100%29.21 "Hg1 mi
5:50 AM46 °FLight rain. Fog.12 mph100%29.21 "Hg1 mi
5:20 AM46 °FLight rain. Passing clouds.9 mph100%29.24 "Hg3 mi
4:20 AM46 °FLight rain. Partly cloudy.9 mph93%29.30 "HgN/A
Weather by CustomWeather, © 2015

See weather overviewHow to use our weather pages